Weather in Panskaya Sloboda

Russia / Ulyanovsk Oblast     54°06′51″N   48°29′27″E
temp.,
°C
wind,
m/s
gust,
m/s
humid.,
%
clouds,
%
prec.,
mm/h
press.,
hPa
HPBL,
m
21 january, thu
thu2101:00−20wsw479673 0.0 1020127
04:00−20wsw379755 0.0 1020120
07:00−17wsw4119583 0.0 1021204
10:00−15w5129491 0.1 1021287
13:00−12wsw51093100 0.1 1021291
16:00−9w51190100 0.1 1020405
19:00−10wsw51189100 0.0 1020341
22:00−10wsw61192100 0.1 1019406
22 january, fri
fri2201:00−11wsw51093100 0.8 1017379
04:00−12wsw4993100 1.3 1017377
07:00−15wsw339698 0.1 101766
10:00−16wsw2395100 0.1 101851
13:00−12w239190 0.0 1019215
16:00−13w119395 0.0 101928
19:00−13ene1193100 0.0 102020
22:00−13se229398 0.0 102242
23 january, sat
sat2301:00−13se2495100 0.1 1022126
04:00−12sse3695100 0.4 1022256
07:00−11sse51093100 0.4 1022274
10:00−10s51093100 0.7 1022257
13:00−6s5994100 0.3 1021268
16:00−4ssw4896100 1.1 1020282
19:00+1ssw4999100 0.3 1020249
22:00+1sw61299100 0.3 1020445
24 january, sun
sun2401:00+1sw51294100 0.0 1020421
04:00+1sw51095100 0.0 1021338
07:00+1sw4997100 0.0 1021287
10:00+1ssw4797100 0.0 1023141
13:00+1ssw51099100 0.0 1023267
16:00+1ssw51099100 0.1 1023294
19:00+1ssw51191100 0.0 1024302
22:00−1ssw61289100 0.0 1025323
25 january, mon
mon2501:000ssw61388100 0.1 1026357
04:00−2ssw6139399 0.1 1027307
07:00−2ssw51193100 0.0 1027318
10:00−3s51190100 0.0 1028302
13:00−3s51093100 0.0 1027341
16:00−3s61196100 0.0 1027404
19:00−2sse51194100 0.0 1026538
22:00−2s51193100 0.1 1026516